Location: Unspecified
(0.0000°N, 0.0000°E)
Time: 21:37:27
(UTC+00:00)

Cosmos 1574 - Visible Passes

Search period start: 17 April 2024 00:00
Search period end: 27 April 2024 00:00
Orbit: 962 x 1005 km, 83.0° (Epoch: 17 April)

Date Brightness Start Highest point End Pass type
(mag) Time Alt. Az. Time Alt. Az. Time Alt. Az.
17 Apr 8.6 05:27:49 10° SSE 05:32:51 25° E 05:37:49 10° NE visible
17 Apr 6.7 18:32:59 10° NNW 18:39:05 61° W 18:45:19 10° S visible
18 Apr 8.2 19:01:47 10° NW 19:06:52 26° W 19:12:00 10° SSW visible
19 Apr 9.3 19:34:06 10° W 19:34:38 10° W 19:35:10 10° W visible
20 Apr 8.5 05:05:55 10° SE 05:10:51 24° E 05:15:44 10° NE visible
20 Apr 6.7 18:10:56 10° NNW 18:17:06 64° W 18:23:21 10° S visible
21 Apr 6.9 05:32:26 10° S 05:38:37 56° E 05:44:41 10° NNE visible
21 Apr 8.3 18:39:42 10° NW 18:44:51 27° W 18:50:05 10° SSW visible
22 Apr 9.3 19:11:18 10° W 19:12:38 11° W 19:13:57 10° WSW visible
23 Apr 8.4 04:44:01 10° SE 04:48:51 23° E 04:53:37 10° NE visible
24 Apr 6.9 05:10:29 10° S 05:16:37 54° E 05:22:38 10° NNE visible
24 Apr 8.4 18:17:37 10° NW 18:22:51 28° W 18:28:11 10° SSW visible
25 Apr 9.3 18:48:50 10° WNW 18:50:38 11° W 18:52:26 10° WSW visible
26 Apr 8.4 04:22:07 10° SE 04:26:50 22° E 04:31:30 10° NE visible
